| time (UTC) | temp C | wind direction | speed KPH | gust KPH | rain 1hr cm | rain 24hr cm | rain mn cm | humidity % | barometer mb |
| 20260504081535 | 7 | 360 | 1.6 | 8.0 | 0.00 | 0.00 | 0.00 | 73 | 1010.1 |
| 20260504044530 | 5 | 0 | 0.0 | 0.0 | 0.00 | 0.00 | 0.00 | 77 | 1011.1 |
| 20260504043032 | 5 | 0 | 0.0 | 0.0 | 0.00 | 0.00 | 0.00 | 76 | 1011.1 |
| 20260504041535 | 5 | 0 | 0.0 | 0.0 | 0.00 | 0.00 | 0.00 | 75 | 1011.1 |
| 20260504040030 | 5 | 0 | 0.0 | 0.0 | 0.00 | 0.00 | 0.00 | 74 | 1010.9 |
| 20260504034529 | 4 | 0 | 0.0 | 0.0 | 0.00 | 0.00 | 0.00 | 73 | 1010.8 |
| 20260504033031 | 4 | 0 | 0.0 | 0.0 | 0.00 | 0.00 | 0.00 | 72 | 1010.7 |
| 20260504031532 | 5 | 0 | 0.0 | 0.0 | 0.00 | 0.00 | 0.00 | 70 | 1010.7 |
| 20260504030032 | 5 | 0 | 0.0 | 0.0 | 0.00 | 0.00 | 0.00 | 69 | 1010.7 |
| 20260504024530 | 5 | 0 | 0.0 | 0.0 | 0.00 | 0.00 | 0.00 | 66 | 1010.5 |
| 20260504023034 | 6 | 0 | 0.0 | 0.0 | 0.00 | 0.00 | 0.00 | 65 | 1010.6 |
| 20260504021532 | 6 | 0 | 0.0 | 0.0 | 0.00 | 0.00 | 0.00 | 61 | 1010.7 |
| 20260504020028 | 6 | 0 | 0.0 | 3.2 | 0.00 | 0.00 | 0.00 | 62 | 1010.7 |
| 20260504014534 | 7 | 0 | 0.0 | 0.0 | 0.00 | 0.00 | 0.00 | 58 | 1010.8 |
| 20260504013035 | 8 | 0 | 0.0 | 0.0 | 0.00 | 0.00 | 0.00 | 54 | 1010.6 |
| 20260504011532 | 8 | 0 | 0.0 | 0.0 | 0.00 | 0.00 | 0.00 | 52 | 1010.5 |
| 20260504010030 | 9 | 0 | 0.0 | 0.0 | 0.00 | 0.00 | 0.00 | 51 | 1010.2 |
| 20260504004530 | 10 | 0 | 0.0 | 0.0 | 0.00 | 0.00 | 0.00 | 47 | 1010.2 |
| 20260504003033 | 10 | 0 | 0.0 | 1.6 | 0.00 | 0.00 | 0.00 | 46 | 1010.1 |
| 20260504001537 | 10 | 0 | 0.0 | 3.2 | 0.00 | 0.00 | 0.00 | 45 | 1009.9 |
| 20260504000030 | 11 | 360 | 0.0 | 9.7 | 0.00 | 0.00 | 0.00 | 45 | 1009.7 |
| 20260503234546 | 11 | 360 | 0.0 | 6.4 | 0.00 | 0.00 | 0.00 | 44 | 1009.6 |
| 20260503233037 | 11 | 0 | 3.2 | 9.7 | 0.00 | 0.00 | 0.00 | 41 | 1009.4 |
| 20260503231533 | 11 | 0 | 1.6 | 9.7 | 0.00 | 0.00 | 0.00 | 41 | 1009.1 |
| 20260503230033 | 11 | 360 | 3.2 | 12.9 | 0.00 | 0.00 | 0.00 | 38 | 1009.0 |
| 20260503224532 | 12 | 0 | 0.0 | 8.0 | 0.00 | 0.00 | 0.00 | 39 | 1008.9 |
| 20260503223032 | 12 | 360 | 3.2 | 9.7 | 0.00 | 0.00 | 0.00 | 35 | 1008.8 |
| 20260503221536 | 12 | 360 | 4.8 | 22.5 | 0.00 | 0.00 | 0.00 | 34 | 1008.9 |
| 20260503220032 | 12 | 309 | 0.0 | 14.5 | 0.00 | 0.00 | 0.00 | 34 | 1008.9 |
| 20260503214533 | 12 | 9 | 3.2 | 12.9 | 0.00 | 0.00 | 0.00 | 34 | 1008.8 |
| 20260503213036 | 12 | 54 | 6.4 | 20.9 | 0.00 | 0.00 | 0.00 | 36 | 1008.8 |
| 20260503211530 | 12 | 360 | 1.6 | 9.7 | 0.00 | 0.00 | 0.00 | 33 | 1008.7 |
| 20260503210032 | 12 | 360 | 4.8 | 19.3 | 0.00 | 0.00 | 0.00 | 34 | 1008.8 |
| 20260503204530 | 12 | 232 | 4.8 | 19.3 | 0.00 | 0.00 | 0.00 | 40 | 1008.9 |
| 20260503203031 | 12 | 360 | 3.2 | 12.9 | 0.00 | 0.00 | 0.00 | 37 | 1009.1 |
| 20260503201530 | 12 | 360 | 3.2 | 14.5 | 0.00 | 0.00 | 0.00 | 37 | 1009.2 |
| 20260503200032 | 12 | 0 | 1.6 | 8.0 | 0.00 | 0.00 | 0.00 | 41 | 1009.3 |
| 20260503194530 | 12 | 360 | 1.6 | 12.9 | 0.00 | 0.00 | 0.00 | 39 | 1009.5 |
| 20260503193030 | 12 | 360 | 4.8 | 19.3 | 0.00 | 0.00 | 0.00 | 40 | 1009.8 |
| 20260503191534 | 12 | 360 | 1.6 | 14.5 | 0.00 | 0.00 | 0.00 | 43 | 1009.8 |
| 20260503190030 | 11 | 360 | 1.6 | 9.7 | 0.00 | 0.00 | 0.00 | 41 | 1009.9 |
| 20260503184528 | 11 | 360 | 4.8 | 16.1 | 0.00 | 0.00 | 0.00 | 43 | 1010.2 |
| 20260503183030 | 11 | 360 | 3.2 | 8.0 | 0.00 | 0.00 | 0.00 | 45 | 1010.3 |
| 20260503181530 | 10 | 360 | 1.6 | 12.9 | 0.00 | 0.00 | 0.00 | 48 | 1010.3 |
| 20260503180035 | 10 | 360 | 3.2 | 8.0 | 0.00 | 0.00 | 0.00 | 46 | 1010.5 |
| 20260503174535 | 11 | 360 | 3.2 | 12.9 | 0.00 | 0.00 | 0.00 | 44 | 1010.4 |
| 20260503173038 | 10 | 360 | 1.6 | 9.7 | 0.00 | 0.00 | 0.00 | 45 | 1010.4 |
| 20260503171531 | 10 | 360 | 3.2 | 14.5 | 0.00 | 0.00 | 0.00 | 44 | 1010.4 |